TimeCDT,TemperatureF,Dew PointF,Humidity,Sea Level PressureIn,VisibilityMPH,Wind Direction,Wind SpeedMPH,Gust SpeedMPH,PrecipitationIn,Events,Conditions,WindDirDegrees,DateUTC
12:15 AM,71.6,66.2,83,30.13,9.0,SE,5.8,-,N/A,,Partly Cloudy,130,2012-10-12 05:15:00
12:35 AM,71.6,66.2,83,30.13,9.0,ESE,4.6,-,N/A,,Mostly Cloudy,110,2012-10-12 05:35:00
12:55 AM,66.2,62.6,88,30.14,9.0,NE,4.6,-,N/A,,Mostly Cloudy,50,2012-10-12 05:55:00
1:15 AM,64.4,60.8,88,30.14,9.0,East,5.8,-,N/A,,Scattered Clouds,80,2012-10-12 06:15:00
1:35 AM,64.4,59.0,83,30.15,9.0,East,4.6,-,N/A,,Scattered Clouds,80,2012-10-12 06:35:00
1:55 AM,64.4,59.0,83,30.16,10.0,East,5.8,-,N/A,,Mostly Cloudy,80,2012-10-12 06:55:00
2:15 AM,64.4,59.0,83,30.15,9.0,ESE,5.8,-,N/A,,Partly Cloudy,110,2012-10-12 07:15:00
2:55 AM,64.4,59.0,83,30.15,10.0,East,4.6,-,N/A,,Overcast,90,2012-10-12 07:55:00
3:15 AM,64.4,59.0,83,30.14,10.0,East,5.8,-,N/A,,Overcast,100,2012-10-12 08:15:00
3:35 AM,62.6,59.0,88,30.13,10.0,ESE,5.8,-,N/A,,Overcast,120,2012-10-12 08:35:00
3:55 AM,62.6,59.0,88,30.12,10.0,SE,3.5,-,N/A,,Overcast,130,2012-10-12 08:55:00
4:15 AM,62.6,59.0,88,30.12,10.0,Calm,Calm,-,N/A,,Overcast,0,2012-10-12 09:15:00
4:35 AM,62.6,59.0,88,30.13,10.0,Calm,Calm,-,N/A,,Overcast,0,2012-10-12 09:35:00
4:55 AM,62.6,59.0,88,30.12,10.0,ESE,5.8,-,N/A,,Overcast,120,2012-10-12 09:55:00
5:15 AM,62.6,59.0,88,30.12,10.0,ESE,9.2,-,N/A,,Overcast,110,2012-10-12 10:15:00
5:35 AM,62.6,59.0,88,30.12,10.0,East,11.5,-,N/A,,Mostly Cloudy,100,2012-10-12 10:35:00
5:55 AM,62.6,59.0,88,30.13,10.0,East,5.8,-,N/A,,Mostly Cloudy,100,2012-10-12 10:55:00
6:15 AM,62.6,59.0,88,30.13,10.0,SE,4.6,-,N/A,,Overcast,140,2012-10-12 11:15:00
6:35 AM,62.6,59.0,88,30.13,9.0,SE,5.8,-,N/A,,Overcast,140,2012-10-12 11:35:00
6:55 AM,62.6,59.0,88,30.13,10.0,SSE,5.8,-,N/A,,Mostly Cloudy,150,2012-10-12 11:55:00
7:15 AM,62.6,59.0,88,30.13,9.0,SE,4.6,-,N/A,,Mostly Cloudy,140,2012-10-12 12:15:00
7:35 AM,64.4,59.0,83,30.14,8.0,SE,8.1,-,N/A,,Mostly Cloudy,130,2012-10-12 12:35:00
7:55 AM,64.4,60.8,88,30.16,8.0,East,10.4,-,N/A,,Overcast,90,2012-10-12 12:55:00
8:15 AM,64.4,60.8,88,30.17,6.0,ESE,4.6,-,N/A,,Overcast,110,2012-10-12 13:15:00
8:55 AM,64.4,60.8,88,30.19,6.0,ESE,10.4,-,N/A,,Overcast,110,2012-10-12 13:55:00
9:15 AM,66.2,60.8,83,30.19,9.0,ESE,8.1,-,N/A,,Overcast,120,2012-10-12 14:15:00
9:35 AM,66.2,62.6,88,30.20,7.0,ESE,6.9,-,N/A,,Overcast,120,2012-10-12 14:35:00
9:55 AM,68.0,62.6,83,30.19,7.0,SE,6.9,-,N/A,,Mostly Cloudy,140,2012-10-12 14:55:00
10:15 AM,69.8,64.4,83,30.17,8.0,SSE,8.1,-,N/A,Thunderstorm,Mostly Cloudy,150,2012-10-12 15:15:00
10:55 AM,68.0,66.2,94,30.20,6.0,NNW,9.2,-,N/A,Thunderstorm,Overcast,330,2012-10-12 15:55:00
12:15 PM,66.2,66.2,100,30.23,1.0,East,17.3,-,0.10,Rain-Thunderstorm,Thunderstorms and Rain,80,2012-10-12 17:15:00
12:35 PM,66.2,66.2,100,30.23,1.2,East,12.7,23.0,0.32,Rain,Heavy Rain,80,2012-10-12 17:35:00
12:55 PM,64.4,64.4,100,30.23,1.2,ENE,20.7,27.6,0.48,Rain,Rain,60,2012-10-12 17:55:00
1:15 PM,64.4,64.4,100,30.22,2.0,East,18.4,28.8,0.07,Rain-Thunderstorm,Rain,90,2012-10-12 18:15:00
1:55 PM,64.4,64.4,100,30.20,5.0,East,16.1,24.2,0.11,Rain,Light Rain,100,2012-10-12 18:55:00
2:15 PM,64.4,62.6,94,30.20,10.0,ESE,15.0,29.9,N/A,,Mostly Cloudy,110,2012-10-12 19:15:00
2:55 PM,64.4,62.6,94,30.18,5.0,ESE,16.1,25.3,0.01,Rain,Light Rain,120,2012-10-12 19:55:00
3:15 PM,66.2,62.6,88,30.17,10.0,ESE,15.0,24.2,N/A,,Overcast,120,2012-10-12 20:15:00
3:35 PM,66.2,62.6,88,30.17,10.0,ESE,16.1,23.0,N/A,,Scattered Clouds,120,2012-10-12 20:35:00
3:55 PM,66.2,62.6,88,30.16,10.0,SE,17.3,27.6,N/A,,Clear,130,2012-10-12 20:55:00
4:15 PM,66.2,62.6,88,30.16,10.0,SE,16.1,21.9,N/A,,Clear,130,2012-10-12 21:15:00
4:35 PM,68.0,62.6,83,30.15,10.0,SE,15.0,21.9,N/A,,Clear,130,2012-10-12 21:35:00
4:55 PM,68.0,62.6,83,30.16,10.0,SE,10.4,21.9,N/A,,Partly Cloudy,140,2012-10-12 21:55:00
5:15 PM,68.0,62.6,83,30.16,10.0,SE,9.2,-,N/A,,Mostly Cloudy,140,2012-10-12 22:15:00
5:35 PM,68.0,62.6,83,30.16,10.0,SE,6.9,16.1,N/A,,Scattered Clouds,130,2012-10-12 22:35:00
5:55 PM,68.0,62.6,83,30.15,10.0,ESE,6.9,-,N/A,,Clear,120,2012-10-12 22:55:00
6:15 PM,68.0,64.4,88,30.14,10.0,SE,9.2,-,N/A,,Partly Cloudy,130,2012-10-12 23:15:00
6:35 PM,66.2,64.4,94,30.12,10.0,SE,11.5,-,N/A,,Clear,130,2012-10-12 23:35:00
6:55 PM,66.2,62.6,88,30.13,10.0,ESE,9.2,-,N/A,,Partly Cloudy,120,2012-10-12 23:55:00
7:15 PM,66.2,62.6,88,30.14,10.0,East,6.9,-,N/A,,Overcast,90,2012-10-13 00:15:00
7:35 PM,66.2,62.6,88,30.14,10.0,East,5.8,-,N/A,,Overcast,90,2012-10-13 00:35:00
7:55 PM,64.4,64.4,100,30.14,10.0,ESE,5.8,-,N/A,,Overcast,120,2012-10-13 00:55:00
8:15 PM,64.4,64.4,100,30.13,10.0,ESE,8.1,-,N/A,,Overcast,110,2012-10-13 01:15:00
8:55 PM,64.4,64.4,100,30.13,10.0,ESE,8.1,-,N/A,,Mostly Cloudy,120,2012-10-13 01:55:00
9:15 PM,64.4,64.4,100,30.12,9.0,ESE,8.1,-,N/A,,Scattered Clouds,110,2012-10-13 02:15:00
9:35 PM,64.4,64.4,100,30.13,9.0,ESE,5.8,-,N/A,,Mostly Cloudy,110,2012-10-13 02:35:00
9:55 PM,64.4,64.4,100,30.13,7.0,ESE,8.1,-,N/A,,Mostly Cloudy,110,2012-10-13 02:55:00
10:15 PM,64.4,64.4,100,30.13,5.0,East,8.1,-,N/A,,Scattered Clouds,100,2012-10-13 03:15:00
10:35 PM,64.4,64.4,100,30.13,5.0,East,9.2,-,N/A,,Scattered Clouds,100,2012-10-13 03:35:00
10:55 PM,64.4,64.4,100,30.12,4.0,ESE,10.4,-,N/A,,Partly Cloudy,110,2012-10-13 03:55:00
11:15 PM,62.6,62.6,100,30.12,3.0,ESE,9.2,-,N/A,,Scattered Clouds,110,2012-10-13 04:15:00
11:55 PM,62.6,62.6,100,30.11,0.2,ESE,10.4,-,N/A,Fog,Fog,110,2012-10-13 04:55:00